EN

Hourly Weather Lada

Today, 4 August, Wednesday

Time Temperature Precipitation Wind Pressure Humidity
00:00 +15°C° 0.2 mm 2 mps 738 mmHg 89%
01:00 +15°C° 0.2 mm 2 mps 738 mmHg 88%
02:00 +15°C° 0.2 mm 2 mps 738 mmHg 88%
03:00 +14°C° 0 mm 2 mps 738 mmHg 89%
04:00 +14°C° 0 mm 2 mps 738 mmHg 91%
05:00 +13°C° 0 mm 2 mps 738 mmHg 92%
06:00 +15°C° 0 mm 2 mps 738 mmHg 88%
07:00 +16°C° 0 mm 2 mps 738 mmHg 84%
08:00 +18°C° 0 mm 2 mps 738 mmHg 80%
09:00 +20°C° 0 mm 1 mps 738 mmHg 74%
10:00 +22°C° 0 mm 1 mps 738 mmHg 67%
11:00 +23°C° 0 mm 1 mps 738 mmHg 61%
12:00 +21°C° 0.5 mm 2 mps 738 mmHg 68%
13:00 +20°C° 0.5 mm 2 mps 738 mmHg 75%
14:00 +19°C° 0.5 mm 3 mps 738 mmHg 82%
15:00 +19°C° 0.1 mm 2 mps 738 mmHg 80%
16:00 +19°C° 0.1 mm 2 mps 738 mmHg 78%
17:00 +20°C° 0.1 mm 1 mps 738 mmHg 77%
18:00 +19°C° 0 mm 1 mps 738 mmHg 80%
19:00 +19°C° 0 mm 1 mps 737 mmHg 83%
20:00 +18°C° 0 mm 1 mps 737 mmHg 86%
21:00 +18°C° 0 mm 1 mps 737 mmHg 88%
22:00 +16°C° 0 mm 1 mps 737 mmHg 89%
23:00 +16°C° 0 mm 1 mps 737 mmHg 91%

Tomorrow, 5 August, Thursday

Time Temperature Precipitation Wind Pressure Humidity
00:00 +15°C° 0 mm 1 mps 737 mmHg 91%
01:00 +15°C° 0 mm 1 mps 736 mmHg 92%
02:00 +15°C° 0 mm 1 mps 736 mmHg 93%
03:00 +15°C° 0 mm 1 mps 736 mmHg 93%
04:00 +15°C° 0 mm 1 mps 736 mmHg 94%
05:00 +15°C° 0 mm 2 mps 736 mmHg 94%
06:00 +15°C° 0 mm 2 mps 735 mmHg 93%
07:00 +16°C° 0 mm 2 mps 735 mmHg 93%
08:00 +16°C° 0 mm 2 mps 735 mmHg 92%
09:00 +17°C° 0.1 mm 2 mps 735 mmHg 90%
10:00 +17°C° 0.1 mm 2 mps 735 mmHg 87%
11:00 +18°C° 0.1 mm 2 mps 734 mmHg 85%
12:00 +19°C° 0 mm 3 mps 734 mmHg 83%
13:00 +19°C° 0 mm 3 mps 734 mmHg 82%
14:00 +19°C° 0 mm 3 mps 734 mmHg 81%
15:00 +19°C° 0.1 mm 3 mps 733 mmHg 82%
16:00 +19°C° 0.1 mm 3 mps 733 mmHg 84%
17:00 +19°C° 0.1 mm 3 mps 732 mmHg 85%
18:00 +19°C° 1.1 mm 3 mps 732 mmHg 89%
19:00 +18°C° 1.1 mm 2 mps 732 mmHg 93%
20:00 +17°C° 1.1 mm 2 mps 731 mmHg 97%
21:00 +17°C° 1.7 mm 2 mps 731 mmHg 97%
22:00 +18°C° 1.7 mm 1 mps 731 mmHg 98%
23:00 +18°C° 1.7 mm 1 mps 731 mmHg 99%

Day after tomorrow, 6 August, Friday

Time Temperature Precipitation Wind Pressure Humidity
00:00 +18°C° 0.3 mm 1 mps 730 mmHg 98%
01:00 +18°C° 0.3 mm 1 mps 730 mmHg 98%
02:00 +18°C° 0.3 mm 1 mps 730 mmHg 98%
03:00 +18°C° 0 mm 1 mps 730 mmHg 98%
04:00 +18°C° 0 mm 1 mps 730 mmHg 98%
05:00 +16°C° 0 mm 1 mps 730 mmHg 98%
06:00 +17°C° 0 mm 2 mps 730 mmHg 98%
07:00 +17°C° 0 mm 2 mps 730 mmHg 97%
08:00 +17°C° 0 mm 2 mps 730 mmHg 96%
09:00 +18°C° 0.1 mm 2 mps 731 mmHg 93%
10:00 +18°C° 0.1 mm 3 mps 731 mmHg 89%
11:00 +19°C° 0.1 mm 3 mps 731 mmHg 86%
12:00 +19°C° 0.3 mm 3 mps 731 mmHg 85%
13:00 +19°C° 0.3 mm 3 mps 731 mmHg 85%
14:00 +19°C° 0.3 mm 4 mps 731 mmHg 84%
15:00 +19°C° 0.3 mm 4 mps 732 mmHg 85%
16:00 +18°C° 0.3 mm 4 mps 732 mmHg 87%
17:00 +18°C° 0.3 mm 4 mps 732 mmHg 88%
18:00 +17°C° 0 mm 4 mps 732 mmHg 90%
19:00 +16°C° 0 mm 3 mps 733 mmHg 92%
20:00 +14°C° 0 mm 3 mps 733 mmHg 93%
21:00 +14°C° 0 mm 3 mps 733 mmHg 94%
22:00 +14°C° 0 mm 3 mps 733 mmHg 95%
23:00 +14°C° 0 mm 3 mps 734 mmHg 95%

7 August, Saturday

Time Temperature Precipitation Wind Pressure Humidity
00:00 +15°C° 0 mm 2 mps 734 mmHg 95%
01:00 +15°C° 0 mm 2 mps 734 mmHg 96%
02:00 +15°C° 0 mm 2 mps 734 mmHg 96%
03:00 +15°C° 0 mm 2 mps 734 mmHg 96%
04:00 +14°C° 0 mm 2 mps 734 mmHg 96%
05:00 +14°C° 0 mm 2 mps 735 mmHg 96%
06:00 +15°C° 0 mm 2 mps 735 mmHg 92%
07:00 +16°C° 0 mm 2 mps 735 mmHg 88%
08:00 +17°C° 0 mm 2 mps 735 mmHg 84%
09:00 +18°C° 0 mm 2 mps 735 mmHg 76%
10:00 +20°C° 0 mm 3 mps 736 mmHg 68%
11:00 +21°C° 0 mm 3 mps 736 mmHg 61%
12:00 +22°C° 0 mm 3 mps 736 mmHg 59%
13:00 +22°C° 0 mm 3 mps 736 mmHg 56%
14:00 +24°C° 0 mm 3 mps 736 mmHg 54%
15:00 +24°C° 0 mm 3 mps 736 mmHg 52%
16:00 +25°C° 0 mm 2 mps 736 mmHg 50%
17:00 +25°C° 0 mm 2 mps 736 mmHg 48%
18:00 +23°C° 0 mm 2 mps 736 mmHg 54%
19:00 +21°C° 0 mm 1 mps 736 mmHg 60%
20:00 +20°C° 0 mm 1 mps 736 mmHg 66%
21:00 +19°C° 0 mm 1 mps 736 mmHg 68%
22:00 +18°C° 0 mm 1 mps 736 mmHg 70%
23:00 +17°C° 0 mm 2 mps 737 mmHg 72%

8 August, Sunday

Time Temperature Precipitation Wind Pressure Humidity
00:00 +16°C° 0 mm 2 mps 737 mmHg 73%
01:00 +16°C° 0 mm 2 mps 737 mmHg 75%
02:00 +16°C° 0 mm 2 mps 737 mmHg 77%
03:00 +16°C° 0 mm 2 mps 737 mmHg 78%
04:00 +14°C° 0 mm 3 mps 737 mmHg 79%
05:00 +14°C° 0 mm 3 mps 737 mmHg 81%
06:00 +17°C° 0 mm 3 mps 737 mmHg 76%
07:00 +19°C° 0 mm 3 mps 737 mmHg 72%
08:00 +20°C° 0 mm 3 mps 737 mmHg 68%
09:00 +23°C° 0 mm 4 mps 737 mmHg 62%
10:00 +26°C° 0 mm 4 mps 737 mmHg 55%
11:00 +28°C° 0 mm 4 mps 737 mmHg 49%
12:00 +28°C° 0 mm 4 mps 737 mmHg 49%
13:00 +28°C° 0 mm 5 mps 737 mmHg 49%
14:00 +28°C° 0 mm 5 mps 737 mmHg 49%
15:00 +28°C° 0 mm 4 mps 738 mmHg 50%
16:00 +28°C° 0 mm 4 mps 738 mmHg 50%
17:00 +29°C° 0 mm 4 mps 738 mmHg 50%
18:00 +27°C° 0 mm 3 mps 738 mmHg 58%
19:00 +25°C° 0 mm 3 mps 738 mmHg 66%
20:00 +23°C° 0 mm 2 mps 739 mmHg 74%
21:00 +21°C° 0 mm 2 mps 739 mmHg 78%
22:00 +20°C° 0 mm 2 mps 739 mmHg 82%
23:00 +19°C° 0 mm 2 mps 739 mmHg 87%

9 August, Monday

Time Temperature Precipitation Wind Pressure Humidity
00:00 +19°C° 0.1 mm 2 mps 739 mmHg 88%
01:00 +19°C° 0.1 mm 2 mps 740 mmHg 89%
02:00 +18°C° 0.1 mm 2 mps 740 mmHg 91%
03:00 +18°C° 0.2 mm 2 mps 740 mmHg 92%
04:00 +18°C° 0.2 mm 2 mps 740 mmHg 93%
05:00 +17°C° 0.2 mm 2 mps 740 mmHg 94%
06:00 +18°C° 0.2 mm 2 mps 740 mmHg 92%
07:00 +19°C° 0.2 mm 2 mps 740 mmHg 89%
08:00 +19°C° 0.2 mm 3 mps 740 mmHg 86%
09:00 +20°C° 0 mm 3 mps 741 mmHg 82%
10:00 +20°C° 0 mm 3 mps 741 mmHg 78%
11:00 +21°C° 0 mm 4 mps 741 mmHg 74%
12:00 +21°C° 0 mm 3 mps 742 mmHg 73%
13:00 +20°C° 0 mm 3 mps 742 mmHg 72%
14:00 +20°C° 0 mm 3 mps 742 mmHg 71%
15:00 +21°C° 0 mm 3 mps 742 mmHg 67%
16:00 +23°C° 0 mm 2 mps 742 mmHg 62%
17:00 +24°C° 0 mm 2 mps 742 mmHg 58%
18:00 +23°C° 0 mm 2 mps 742 mmHg 63%
19:00 +20°C° 0 mm 2 mps 742 mmHg 69%
20:00 +19°C° 0 mm 2 mps 741 mmHg 74%
21:00 +19°C° 0 mm 2 mps 741 mmHg 76%
22:00 +18°C° 0 mm 2 mps 741 mmHg 78%
23:00 +17°C° 0 mm 2 mps 741 mmHg 81%
Show more